This is the latest recevied weather packets stored in our database for station/object WX5HOT. If no packets are shown the sender has not sent any weather packets the latest 1 day(s).
| Time | Temp. | Humidity | Pressure | Rain* | Wind** | Luminosity | Snow |
|---|---|---|---|---|---|---|---|
| 1778007568 | 18.33° C | 99% | 1057 hPa | 0 mm | 1.79 m/s, 183° | 135 W/m² | - |
| 1778007266 | 18.33° C | 99% | 1056.9 hPa | 0 mm | 1.79 m/s, 175° | 118 W/m² | - |
| 1778006962 | 17.78° C | 99% | 1057 hPa | 0 mm | 1.79 m/s, 177° | 135 W/m² | - |
| 1778006659 | 17.78° C | 99% | 1056.9 hPa | 0 mm | 2.24 m/s, 161° | 111 W/m² | - |
| 1778006356 | 17.78° C | 99% | 1056.9 hPa | 0 mm | 1.34 m/s, 186° | 78 W/m² | - |
| 1778006053 | 17.78° C | 99% | 1056.9 hPa | 0 mm | 1.34 m/s, 183° | 96 W/m² | - |
| 1778005749 | 17.78° C | 99% | 1057.1 hPa | 0 mm | 1.34 m/s, 194° | 94 W/m² | - |
| 1778005446 | 17.78° C | 99% | 1057 hPa | 0 mm | 2.68 m/s, 178° | 74 W/m² | - |
| 1778005142 | 17.78° C | 99% | 1057.2 hPa | 0 mm | 1.79 m/s, 185° | 78 W/m² | - |
| 1778004840 | 17.78° C | 99% | 1057.2 hPa | 0 mm | 2.24 m/s, 180° | 101 W/m² | - |
| 1778004537 | 17.78° C | 99% | 1057.1 hPa | 0 mm | 1.79 m/s, 179° | 102 W/m² | - |
| 1778004233 | 17.78° C | 99% | 1057.2 hPa | 1.27 mm | 1.79 m/s, 187° | 100 W/m² | - |
| 1778003930 | 17.78° C | 99% | 1057.3 hPa | 1.27 mm | 1.79 m/s, 162° | 85 W/m² | - |
| 1778003626 | 17.22° C | 99% | 1057.4 hPa | 0 mm | 1.34 m/s, 182° | 65 W/m² | - |
| 1778003322 | 17.22° C | 99% | 1057.4 hPa | 0 mm | 1.34 m/s, 168° | 91 W/m² | - |
| 1778003020 | 17.22° C | 99% | 1057.5 hPa | 1.78 mm | 1.79 m/s, 148° | 71 W/m² | - |
| 1778002716 | 17.22° C | 99% | 1057.5 hPa | 1.78 mm | 1.79 m/s, 183° | 73 W/m² | - |
| 1778002413 | 17.22° C | 99% | 1057.5 hPa | 0 mm | 1.34 m/s, 175° | 71 W/m² | - |
| 1778002110 | 17.22° C | 99% | 1057.5 hPa | 0 mm | 1.79 m/s, 182° | 81 W/m² | - |
| 1778001808 | 17.22° C | 99% | 1057.9 hPa | 0 mm | 0.45 m/s, 167° | 68 W/m² | - |
| 1778001507 | 17.22° C | 99% | 1057.7 hPa | 0 mm | 0.89 m/s, 183° | 93 W/m² | - |
| 1778001205 | 17.22° C | 99% | 1057.9 hPa | 0 mm | 1.79 m/s, 162° | 83 W/m² | - |
| 1778000901 | 17.22° C | 99% | 1057.7 hPa | 1.27 mm | 1.79 m/s, 176° | 76 W/m² | - |
| 1778000598 | 17.22° C | 99% | 1057.5 hPa | 1.27 mm | 1.79 m/s, 181° | 114 W/m² | - |
| 1778000293 | 17.22° C | 99% | 1057.6 hPa | 0 mm | 2.24 m/s, 177° | 90 W/m² | - |
* Rain latest hour (hover to see other rain measurements)
** Current wind speed in m/s (hover to see current wind gust speed)